Starlink 30873

operational
NORAD ID: 58249 Int'l Des: 2023-171 Owner: SPXS Country: US Constellation: starlink
LEOCIRCULAR

Über Starlink 30873

Beschreibung wird geladen...

Live-Position

3D-Globus wird geladen...

Nächste Überflüge

Höhenverlauf

Altitude vs Time

uPlot chart will show altitude changes over time

Zweizeiliger Elementsatz

1 58249U 23171V 25352.09654674 -.00001218 00000-0 -75068-4 0 9994
2 58249 43.0052 9.1883 0001073 283.0008 77.0715 15.02539901117455
Epoch: 18. Dez. 2025 • Age: 16 hours

Aktueller Status

Höhe 558.8 km
Geschwindigkeit 7.59 km/s
Subsatellitenpunkt 21.76°N, 26.87°E
Startdatum 8. Nov. 2023
Alter 2.1 years
Typ internet

Technische Details

Klassifizierung Payload
Masse 730.00 kg
Trockenmasse 700.00 kg
Gesamtmasse 730.00 kg
Länge 0.30 m
Durchmesser 4.10 m
Spannweite 29.00 m
Form Box + pan
Hersteller SPXS
Bus-Typ Starlink V2M
Phasenstatus In Orbit
Besitzer/Staat SPXS/US

Große Konstellationen

Loading constellations...